{"data":{"norad_id":62050,"intl_designator":"2024-216U","name":"STARLINK-32492","alt_names":[],"object_type":"PAYLOAD","status":"ACTIVE","operator":null,"country":"US","launch_date":"2024-11-21","launch_site_code":"AFETR","launch_vehicle":null,"mission":null,"orbit_class":"UNKNOWN","rcs_meters":null,"size_class":null,"mass_kg":null,"dimensions":null,"purposes":["comms"],"wikipedia_slug":null,"has_3d_model":false,"image_url":null,"decayed_at":null,"tle_current":{"epoch":"2026-05-25T04:21:15.132960Z","epoch_age_seconds":55270,"freshness":"FRESH","line1":"1 62050U 24216U   26145.18142515  .00012244  00000+0  45362-3 0  9998","line2":"2 62050  43.0002 191.2968 0001370 270.2553  89.8141 15.27588074 85499","mean_motion":15.27588074,"eccentricity":0.000137,"inclination_deg":43.0002,"raan_deg":191.2968,"arg_perigee_deg":270.2553,"mean_anomaly_deg":89.8141,"bstar":0.00045362,"rev_number":8549,"period_min":94.266250470871,"perigee_km":482.08494050254,"apogee_km":483.96489886853,"semimajor_km":6861.1619196855,"source":"CELESTRAK","updated_at":"2026-05-25T13:38:19.527750Z"}}}